Wind_Speed
20 21 21 20 21 21 21 22 22 23 23 24 24 25 25 26 25 25 25 24 23 23 22 22 22 23 22 22 22 21 21 21 20 21 22 24 25 27 29 30 30 30 30
19 19 19 19 19 20 21 22 22 22 23 23 24 25 25 25 25 25 24 23 23 23 22 22 22 22 22 21 21 20 20 19 19 19 19 21 23 24 25 27 28 28 29
17 18 19 20 19 20 21 21 21 21 22 23 24 25 25 25 25 24 23 23 23 23 22 21 20 19 19 19 19 18 18 18 17 17 18 19 21 22 23 25 26 27 28
18 17 17 19 20 20 20 20 21 21 22 22 24 24 24 24 24 23 22 22 22 22 21 20 19 19 18 18 17 17 17 17 17 17 18 19 20 21 21 22 23 25 26
16 16 18 18 18 19 19 19 20 21 21 22 22 23 23 23 23 23 22 21 21 21 20 20 19 18 18 17 16 16 16 16 16 16 17 18 19 20 21 21 22 23 25
15 16 17 18 18 18 19 19 20 21 21 21 21 22 22 22 22 21 21 20 20 20 20 19 18 18 17 16 15 15 15 15 15 16 16 16 18 19 20 21 22 22 23
16 16 18 17 17 19 19 20 20 20 21 21 22 22 22 21 21 20 20 19 19 19 19 19 18 17 16 16 15 15 15 14 14 15 15 16 16 17 18 18 19 20 21
16 16 17 17 18 19 19 19 19 19 19 21 22 21 21 20 20 20 19 19 19 18 18 17 16 15 15 15 15 15 15 14 14 14 15 15 16 16 17 17 18 19 20
15 16 16 16 17 17 17 18 18 19 20 20 21 21 20 20 20 19 20 18 17 17 17 16 15 15 15 15 14 14 14 14 14 15 14 14 15 16 16 17 18 19 19
14 15 16 16 16 17 19 19 18 19 20 20 20 20 20 20 19 19 18 18 17 17 16 16 15 15 15 15 15 14 14 14 14 14 14 15 15 16 17 18 19 19 20
14 15 14 15 16 17 18 19 19 19 18 19 20 20 20 20 19 18 18 18 17 17 17 16 16 16 15 15 15 14 14 15 15 15 14 15 16 17 18 18 19 20 20
12 13 14 15 16 17 18 18 18 17 18 19 19 20 20 19 19 19 19 18 18 18 17 17 16 16 16 16 16 15 15 15 15 16 16 17 17 18 18 19 20 21 21
12 13 13 14 16 16 17 17 17 17 18 18 19 19 20 20 20 21 20 19 18 17 17 17 17 17 17 16 16 16 16 16 16 17 17 17 18 18 19 19 20 20 21
11 12 13 14 15 15 15 15 16 17 17 18 19 20 20 20 21 20 20 19 19 18 18 18 18 18 17 18 18 18 18 18 18 18 18 18 18 19 19 19 20 21 22
10 11 12 13 14 15 16 16 17 17 18 18 19 20 21 21 22 21 21 20 19 19 19 19 20 20 19 19 19 19 19 20 20 20 20 19 19 19 19 19 20 22 23
10 11 12 13 14 15 15 16 16 18 19 19 20 21 21 22 23 23 22 21 21 20 20 20 21 21 21 21 21 20 21 22 22 22 22 22 21 21 21 22 22 23 23
10 11 12 13 14 15 15 16 17 18 20 21 21 21 21 22 23 23 22 22 21 21 21 22 22 22 22 22 21 22 22 22 23 23 22 21 22 22 22 23 23 24 24
10 11 13 14 14 15 15 17 18 19 20 20 21 21 22 23 24 24 23 23 23 23 22 22 22 23 23 22 22 23 23 23 23 22 22 22 22 22 23 24 24 24 24
11 12 13 14 14 15 16 18 19 20 20 21 22 23 23 24 25 24 24 24 24 24 24 24 24 24 24 24 24 24 25 25 24 24 24 24 24 24 24 23 24 24 24
11 12 13 14 14 15 16 18 19 20 21 22 23 24 24 25 25 25 26 25 25 25 26 26 25 26 25 25 25 26 26 26 26 25 25 25 24 24 24 24 24 24 24
12 13 14 15 15 16 17 18 20 21 22 23 24 25 26 26 27 27 28 27 27 27 27 27 27 26 26 27 27 27 26 26 26 26 25 25 24 24 24 24 25 25 25
13 14 14 15 16 17 18 19 21 22 23 24 25 26 28 28 28 29 29 29 28 28 28 28 28 28 28 27 26 26 25 24 24 23 24 24 24 24 25 25 25 25 25
14 14 15 16 17 17 19 20 22 23 24 25 27 28 29 29 30 30 30 30 29 29 29 28 29 29 28 27 26 25 25 24 24 24 24 25 24 25 25 25 25 25 25
14 15 16 17 17 19 21 22 23 25 26 27 28 29 30 31 31 31 31 31 30 30 30 30 29 29 29 28 27 26 25 25 24 25 25 25 25 25 25 25 25 25 25
15 16 16 17 19 20 22 23 24 26 27 28 29 29 30 31 32 32 32 32 31 32 32 31 31 30 30 29 27 26 26 25 25 25 25 25 25 25 25 25 25 25 26
15 16 17 18 20 22 23 24 26 27 28 29 30 31 31 32 33 34 34 34 34 33 33 33 32 31 30 29 29 28 27 27 26 26 26 26 25 25 25 25 25 26 26
Wind_Direction
290 292 294 294 295 298 302 306 307 308 311 313 313 314 314 314 314 313 310 309 310 308 307 305 301 300 298 294 289 284 279 273 265 263 260 258 255 252 249 247 246 246 245
293 293 295 294 296 298 303 307 308 310 311 313 315 315 314 314 315 314 313 312 312 310 308 306 303 301 299 295 291 287 282 277 270 265 261 258 253 251 250 248 245 244 243
292 295 297 299 300 302 304 307 309 311 313 314 316 316 315 315 315 315 315 314 314 312 310 308 306 304 301 298 294 288 284 280 278 272 265 260 255 254 252 250 246 244 244
291 295 299 303 306 307 308 309 311 312 314 315 316 316 316 317 317 316 315 314 313 312 312 310 309 308 306 301 297 291 286 278 279 276 271 262 258 257 254 252 248 247 247
291 295 299 305 308 310 310 311 313 314 314 316 317 317 317 318 317 316 315 314 314 314 313 311 308 307 308 304 301 297 289 281 281 276 271 263 260 259 258 254 251 249 249
295 300 302 306 309 310 312 314 315 317 318 319 319 320 319 319 319 318 317 315 316 316 314 313 309 306 305 303 302 300 294 288 286 283 276 269 263 262 259 254 252 251 250
299 300 300 304 308 310 313 315 317 319 321 322 321 321 321 320 320 320 320 318 317 315 314 311 309 308 306 302 301 303 300 292 288 285 278 273 268 262 259 255 253 252 250
299 302 302 301 305 309 311 315 318 321 323 322 323 323 325 324 322 321 319 319 319 319 316 312 310 308 307 306 304 301 297 293 291 286 281 275 271 264 258 255 254 253 252
297 298 304 307 307 309 312 314 318 320 322 322 325 324 325 325 323 320 318 319 320 320 319 317 313 312 308 306 304 304 298 293 291 287 282 278 274 268 260 256 255 257 257
299 298 303 309 311 311 315 317 320 321 321 324 324 325 325 325 325 323 323 322 322 322 321 319 317 315 311 309 306 305 302 296 295 292 287 285 279 273 268 263 260 260 260
302 304 306 310 314 317 318 321 321 322 322 324 326 325 325 327 327 326 327 327 324 321 319 317 316 315 313 310 308 307 305 301 299 296 290 287 283 276 271 268 265 264 262
309 311 312 314 318 321 322 322 321 322 323 325 327 329 329 329 330 328 328 327 325 321 318 315 313 313 312 312 312 310 307 303 300 297 291 287 283 278 273 271 269 267 265
319 319 320 322 324 323 323 324 324 326 327 328 329 332 331 331 330 330 329 327 324 321 318 315 313 313 312 312 311 310 308 305 302 299 296 292 288 283 276 272 271 268 267
323 324 326 330 332 330 331 330 331 332 332 332 330 331 331 331 330 329 329 326 324 322 319 318 316 314 311 309 308 307 306 305 302 301 297 294 292 288 282 277 274 270 270
327 330 332 335 335 335 335 334 336 337 337 336 335 335 333 332 333 329 327 325 324 322 321 320 318 313 310 307 305 304 304 304 303 301 297 293 291 289 287 283 280 276 274
333 337 339 339 338 338 338 338 340 342 341 340 339 337 337 337 337 335 331 327 325 324 321 318 316 314 309 305 302 301 302 304 304 301 297 293 290 286 284 283 281 279 277
343 345 344 344 344 342 342 342 342 342 341 340 339 338 337 338 338 337 335 332 329 325 322 318 315 314 311 306 304 304 303 303 302 301 299 295 291 288 286 285 283 281 278
349 347 346 346 346 347 348 347 345 343 342 342 343 342 341 340 338 336 333 332 330 327 325 322 318 316 313 311 308 307 306 304 300 297 297 296 295 291 287 284 282 281 279
353 351 349 348 349 350 350 347 345 345 345 345 344 343 342 341 339 336 333 331 329 327 325 323 320 317 315 313 311 308 305 304 301 297 297 297 294 292 289 286 284 283 280
354 353 351 349 348 348 348 347 346 345 345 343 342 342 341 339 338 337 335 333 331 328 326 323 320 316 314 312 311 309 307 304 302 299 296 296 295 293 291 288 286 284 282
353 351 349 349 349 348 348 347 346 345 344 343 342 341 339 338 338 337 336 335 332 330 327 325 323 321 317 315 313 311 308 305 303 300 297 295 294 294 292 291 289 286 284
352 349 348 350 350 348 346 346 345 345 343 342 341 340 339 338 337 337 336 335 333 331 329 327 325 324 322 319 315 313 312 309 305 304 301 298 295 294 294 293 291 288 286
351 350 349 348 348 347 346 345 344 343 342 341 341 340 339 339 338 337 336 335 333 331 330 329 328 327 326 324 320 317 315 314 310 306 304 302 298 296 294 292 290 288 288
351 351 349 348 346 345 345 344 343 343 342 341 341 340 340 340 340 339 338 337 335 334 331 329 328 326 325 324 322 319 315 313 311 310 308 305 302 298 295 293 291 290 289
352 351 350 350 348 346 345 344 344 343 343 342 342 341 341 341 341 340 340 338 335 333 332 331 330 328 326 325 323 320 318 315 314 312 311 309 306 302 298 296 294 291 290
352 351 350 350 349 348 347 345 344 344 345 344 343 342 341 341 341 341 340 339 336 335 333 333 331 329 328 326 324 321 318 316 314 313 311 309 306 303 301 298 297 296 293
Height
5774 5773 5771 5769 5768 5766 5763 5761 5758 5755 5751 5748 5744 5740 5736 5732 5728 5724 5720 5717 5713 5710 5707 5704 5701 5698 5695 5693 5691 5690 5689 5688 5689 5690 5690 5691 5693 5695 5698 5700 5703 5705 5708
5769 5768 5766 5765 5763 5760 5758 5756 5753 5749 5746 5742 5739 5735 5731 5727 5723 5719 5715 5712 5708 5705 5702 5698 5695 5692 5690 5688 5686 5684 5683 5683 5683 5683 5684 5685 5686 5688 5690 5692 5695 5698 5700
5765 5763 5762 5760 5758 5756 5753 5751 5748 5744 5741 5737 5733 5730 5726 5722 5718 5714 5711 5707 5703 5700 5697 5693 5690 5687 5685 5683 5681 5679 5679 5678 5678 5678 5678 5679 5680 5681 5683 5685 5687 5690 5692
5761 5759 5758 5756 5754 5751 5749 5746 5743 5739 5736 5732 5729 5725 5721 5717 5713 5709 5706 5702 5699 5695 5692 5689 5686 5683 5681 5679 5677 5675 5674 5674 5673 5673 5673 5674 5674 5675 5677 5679 5680 5683 5685
5756 5755 5754 5752 5749 5747 5744 5741 5738 5734 5731 5728 5724 5720 5717 5713 5709 5705 5701 5698 5694 5691 5688 5685 5682 5680 5677 5675 5673 5672 5670 5669 5669 5668 5668 5668 5669 5670 5671 5673 5674 5676 5678
5753 5751 5749 5747 5745 5743 5740 5737 5734 5730 5727 5723 5720 5716 5712 5708 5704 5700 5697 5694 5691 5687 5684 5681 5679 5676 5674 5672 5669 5668 5666 5665 5665 5664 5664 5664 5664 5665 5666 5667 5669 5671 5672
5748 5747 5745 5743 5741 5739 5736 5733 5730 5726 5723 5719 5716 5712 5708 5704 5700 5697 5693 5690 5687 5683 5680 5678 5675 5673 5670 5668 5666 5664 5663 5661 5661 5660 5660 5659 5659 5660 5660 5661 5663 5664 5666
5744 5743 5741 5739 5737 5735 5732 5729 5726 5722 5719 5716 5712 5708 5704 5700 5697 5693 5690 5686 5683 5680 5677 5674 5671 5669 5667 5665 5663 5661 5659 5658 5657 5656 5655 5655 5655 5655 5655 5656 5657 5658 5660
5740 5739 5737 5735 5733 5730 5727 5725 5721 5718 5715 5712 5708 5704 5700 5696 5693 5689 5686 5683 5679 5676 5673 5671 5668 5666 5664 5662 5660 5658 5656 5655 5653 5652 5651 5651 5650 5650 5650 5651 5652 5653 5654
5736 5734 5733 5731 5729 5726 5723 5720 5717 5714 5711 5708 5704 5701 5697 5693 5689 5686 5682 5679 5676 5673 5670 5668 5665 5663 5660 5658 5656 5654 5652 5651 5649 5648 5647 5646 5645 5645 5645 5646 5647 5648 5648
5732 5730 5729 5727 5725 5722 5719 5717 5714 5711 5708 5705 5701 5697 5694 5690 5686 5683 5679 5676 5673 5670 5667 5665 5662 5660 5657 5655 5652 5650 5648 5647 5645 5644 5643 5642 5641 5640 5640 5641 5641 5642 5642
5729 5727 5726 5724 5721 5719 5716 5714 5711 5708 5705 5701 5698 5694 5690 5687 5683 5680 5676 5673 5669 5667 5664 5661 5659 5656 5654 5651 5649 5647 5645 5643 5641 5640 5639 5637 5636 5635 5635 5635 5635 5635 5636
5726 5725 5723 5721 5718 5716 5713 5710 5708 5705 5701 5698 5695 5691 5688 5684 5680 5676 5673 5669 5666 5663 5660 5658 5655 5653 5650 5648 5645 5643 5641 5639 5637 5635 5633 5632 5631 5630 5629 5629 5629 5629 5629
5724 5722 5721 5718 5716 5713 5710 5708 5705 5702 5698 5695 5692 5688 5685 5681 5677 5673 5669 5666 5662 5659 5656 5653 5651 5648 5646 5644 5641 5639 5636 5634 5632 5630 5628 5626 5625 5624 5623 5622 5622 5622 5622
5722 5720 5718 5716 5714 5711 5708 5705 5702 5699 5696 5693 5689 5686 5682 5678 5674 5669 5665 5662 5658 5655 5652 5649 5646 5644 5641 5639 5636 5634 5631 5629 5627 5624 5622 5620 5619 5618 5616 5615 5615 5614 5614
5720 5718 5716 5714 5712 5709 5706 5703 5700 5697 5693 5690 5686 5683 5679 5675 5670 5666 5662 5658 5654 5651 5648 5645 5642 5639 5636 5633 5631 5628 5626 5623 5621 5618 5616 5614 5612 5611 5609 5608 5608 5607 5606
5718 5716 5714 5712 5710 5707 5704 5701 5698 5695 5691 5688 5684 5680 5676 5672 5667 5663 5658 5654 5650 5647 5643 5640 5637 5633 5630 5627 5625 5622 5619 5616 5614 5611 5609 5607 5605 5604 5602 5601 5600 5599 5598
5717 5715 5713 5711 5708 5705 5703 5700 5697 5693 5690 5686 5682 5677 5673 5669 5664 5660 5655 5651 5647 5643 5639 5635 5632 5628 5624 5621 5618 5615 5613 5609 5607 5604 5602 5600 5598 5596 5594 5593 5591 5590 5589
5716 5714 5712 5709 5707 5704 5701 5698 5695 5691 5688 5684 5679 5675 5671 5666 5661 5657 5652 5647 5643 5639 5635 5630 5626 5623 5619 5615 5612 5609 5606 5603 5600 5597 5594 5592 5590 5588 5586 5584 5583 5582 5581
5716 5714 5711 5709 5706 5703 5700 5697 5693 5690 5686 5682 5677 5673 5668 5663 5658 5653 5648 5643 5639 5634 5630 5625 5621 5617 5613 5609 5605 5602 5599 5595 5592 5589 5586 5584 5582 5580 5578 5576 5575 5573 5572
5715 5713 5710 5707 5704 5701 5698 5695 5692 5688 5684 5680 5675 5670 5665 5660 5655 5650 5644 5639 5634 5629 5624 5620 5615 5611 5607 5602 5598 5594 5591 5587 5584 5581 5578 5576 5573 5571 5569 5567 5566 5564 5563
5715 5712 5709 5706 5703 5700 5697 5694 5690 5686 5682 5677 5672 5667 5662 5657 5651 5646 5640 5635 5629 5624 5619 5614 5610 5605 5600 5595 5591 5587 5583 5579 5576 5573 5570 5568 5565 5563 5561 5559 5557 5555 5554
5714 5711 5708 5705 5702 5699 5695 5692 5688 5684 5679 5674 5669 5664 5659 5653 5647 5641 5635 5630 5624 5619 5614 5608 5603 5598 5593 5588 5584 5579 5576 5572 5569 5566 5563 5560 5557 5554 5552 5550 5548 5546 5544
5713 5710 5707 5704 5701 5697 5694 5690 5686 5681 5676 5671 5666 5660 5655 5649 5643 5637 5631 5625 5619 5613 5608 5602 5597 5592 5587 5582 5577 5572 5569 5565 5561 5558 5555 5552 5549 5546 5544 5541 5539 5537 5535
5712 5709 5706 5703 5699 5696 5692 5688 5683 5678 5673 5668 5662 5657 5651 5645 5639 5633 5626 5620 5614 5608 5602 5596 5591 5585 5580 5575 5570 5566 5562 5558 5554 5551 5547 5544 5541 5538 5535 5532 5530 5528 5526
5711 5708 5705 5701 5698 5694 5690 5685 5681 5676 5670 5665 5659 5653 5647 5641 5635 5628 5622 5615 5609 5602 5596 5590 5584 5579 5573 5568 5564 5559 5555 5551 5547 5543 5539 5536 5532 5529 5526 5523 5521 5518 5516